Location: Schommer Observatory
(40.5200°N, 74.4500°W)
Time: 05:59:31
(UTC-05:00)

Hubble Space Telescope - Visible Passes

Search period start: 20 January 2018 00:00
Search period end: 30 January 2018 00:00
Orbit: 537 x 541 km, 28.5° (Epoch: 19 January)

Date Brightness Start Highest point End Pass type
(mag) Time Alt. Az. Time Alt. Az. Time Alt. Az.
23 Jan 3.3 18:58:46 10° SSE 18:58:59 10° SSE 18:58:59 10° SSE visible
24 Jan 3.2 18:47:11 10° S 18:48:35 11° SSE 18:49:22 11° SSE visible
25 Jan 3.1 18:36:20 10° SSW 18:38:12 13° S 18:39:46 11° SSE visible
26 Jan 3.1 18:25:40 10° SSW 18:27:49 14° S 18:29:56 10° SE visible
27 Jan 3.1 18:15:07 10° SSW 18:17:25 15° S 18:19:44 10° SE visible
27 Jan 3.7 19:55:48 10° SW 19:55:55 10° SW 19:55:55 10° SW visible
28 Jan 3.2 18:04:39 10° SSW 18:07:03 15° S 18:09:27 10° SE visible
28 Jan 3.6 19:45:43 10° SW 19:46:21 11° SSW 19:46:21 11° SSW visible
29 Jan 3.2 17:54:13 10° SW 17:56:39 15° S 17:59:06 10° SE visible
29 Jan 3.5 19:35:50 10° SSW 19:36:50 11° SSW 19:36:50 11° SSW visible
